Simultaneous Nadir Overpasses (SNOs) Predictions

Prediction of SNOs between METOP-B and TERRA Satellite Orbit:

Table of predicted SNOs for the next 14.0 days since TLE Epoch: 7/3/2021
Index Date (METOP-B) Time (METOP-B) Lat,Lon (METOP-B) SZA (METOP-B ) Date (TERRA) Time (TERRA) Lat,Lon (TERRA) SZA (TERRA ) Distance(km) Time Diff (sec)
1 07/03/2021 13:00:10 -81.25,-150.23 119.12 07/03/2021 13:01:12 -81.24,-150.35 119.11 2.30 62
2 07/03/2021 13:50:49 81.26, 17.65 60.96 07/03/2021 13:50:37 81.27, 17.76 60.97 2.10 12
3 07/06/2021 08:34:33 -81.25, -83.67 118.85 07/06/2021 08:35:24 -81.25, -83.84 118.85 3.03 51
4 07/06/2021 09:25:12 81.26, 84.19 61.23 07/06/2021 09:24:49 81.27, 84.24 61.22 1.17 23
5 07/09/2021 04:08:57 -81.25, -17.52 118.58 07/09/2021 04:09:36 -81.25, -17.37 118.55 2.41 39
6 07/09/2021 04:59:35 81.27, 150.73 61.54 07/09/2021 04:59:01 81.27, 150.68 61.53 1.00 34
7 07/11/2021 23:43:19 -81.25, 49.00 118.21 07/11/2021 23:43:47 -81.25, 49.05 118.20 0.91 28
8 07/12/2021 00:33:57 81.27,-142.76 61.91 07/12/2021 00:33:12 81.27,-142.92 61.87 2.78 45
9 07/14/2021 19:17:41 -81.26, 115.89 117.75 07/14/2021 19:17:58 -81.27, 115.80 117.75 1.62 17



Historial Predications of SNOs between METOP-B and TERRA
